CAPE
1482 1612 1620 1504 1423 1419 1456 1450 1479 1507 1529 1559 1544 1487 1555 1842 1842 1680 1573 1893 2189 2303 2296 2232 2179 2084 2120 2296 2386 2450 2510 2687 2916 3037 3061 2988 2896 2876 2847 2758 2631 2482 2336 2260 2223 2226 1971 1532 1288 856 299 376 567 650 732 831 842 290 9 29 16 7 2 2 1 0 5 4 11 42 0 42 35 75 62 74 96 556 866 398 143 111 234 350 277
1557 1586 1686 1697 1621 1528 1549 1599 1602 1609 1609 1600 1584 1521 1492 1668 1985 1935 1756 1724 2096 2297 2408 2363 2262 2176 2128 2207 2372 2454 2487 2526 2678 2898 2958 2966 2938 2908 2906 2835 2739 2636 2472 2331 2342 2324 2305 2089 1614 1178 944 530 230 413 611 775 845 792 162 107 58 114 24 93 82 108 104 112 154 15 61 39 50 22 115 115 114 403 722 523 38 44 143 278 259
1703 1654 1692 1768 1761 1692 1625 1667 1727 1742 1737 1708 1654 1553 1472 1444 1741 2127 2059 1906 2007 2207 2241 2357 2392 2331 2241 2195 2233 2379 2474 2508 2539 2744 2902 2939 2945 2905 2861 2821 2803 2712 2595 2473 2435 2416 2374 2252 1883 1378 1173 1134 750 456 480 623 744 810 705 539 293 114 158 70 83 100 98 109 75 78 45 43 9 0 25 110 215 234 394 177 97 277 329 277 190
1819 1721 1745 1766 1812 1805 1730 1702 1764 1832 1849 1835 1804 1728 1576 1428 1373 1750 2256 2249 2155 2223 2296 2217 2228 2305 2320 2253 2207 2280 2391 2474 2497 2549 2776 2904 2939 2928 2896 2828 2776 2722 2626 2529 2478 2427 2377 2275 2055 1677 1316 1220 1241 1031 626 556 748 781 783 606 576 456 162 150 40 84 66 101 186 459 94 37 30 0 56 133 215 158 121 125 17 263 271 228 129
1952 1875 1826 1821 1833 1867 1838 1784 1772 1821 1888 1915 1909 1852 1734 1572 1388 1330 1580 2201 2420 2339 2356 2415 2332 2273 2262 2280 2295 2299 2341 2424 2473 2476 2600 2775 2864 2886 2884 2855 2788 2724 2645 2543 2471 2396 2339 2261 2140 1979 1736 1387 1259 1249 1134 768 710 784 758 766 652 567 402 314 113 27 56 64 136 312 124 77 28 24 98 203 182 162 77 34 0 15 180 186 107
2067 2018 1974 1937 1905 1900 1902 1878 1836 1820 1861 1915 1939 1900 1819 1698 1547 1384 1270 1421 2059 2476 2429 2401 2493 2477 2394 2331 2314 2348 2368 2422 2490 2505 2538 2682 2794 2831 2818 2808 2791 2754 2692 2599 2497 2408 2284 2171 2077 2004 1897 1698 1462 1327 1271 1139 876 726 756 742 778 754 638 594 567 434 426 67 49 202 217 209 139 74 41 227 223 232 200 116 34 4 0 41 163
2302 2207 2139 2093 2065 2018 1978 1947 1916 1877 1856 1867 1880 1899 1849 1758 1628 1482 1335 1256 1379 1961 2459 2437 2364 2526 2614 2558 2462 2388 2385 2443 2521 2561 2577 2626 2755 2828 2821 2790 2762 2723 2705 2668 2556 2460 2360 2179 2024 1938 1876 1776 1613 1503 1464 1385 1106 853 717 700 747 762 780 668 590 600 619 581 227 45 334 433 211 379 90 144 277 280 303 259 241 172 22 0 0
2573 2459 2369 2272 2201 2194 2157 2088 2028 1983 1940 1902 1861 1836 1826 1781 1688 1546 1383 1286 1260 1395 1922 2412 2440 2321 2424 2586 2611 2512 2399 2382 2502 2620 2641 2640 2705 2816 2848 2822 2764 2708 2654 2643 2625 2540 2445 2325 2139 1967 1860 1786 1705 1616 1541 1519 1444 1090 813 701 668 683 755 800 756 705 699 706 617 228 172 248 573 610 609 542 281 340 356 293 311 280 387 383 390
2822 2712 2600 2526 2442 2333 2351 2296 2206 2141 2082 2019 1940 1858 1795 1766 1723 1616 1476 1337 1278 1309 1416 1888 2337 2391 2258 2227 2472 2564 2465 2374 2363 2542 2694 2706 2696 2752 2836 2848 2810 2743 2668 2596 2599 2618 2564 2466 2330 2129 1942 1820 1748 1677 1618 1566 1488 1388 1194 893 726 682 684 741 806 819 809 775 711 572 549 528 508 550 532 509 492 222 163 177 274 225 226 409 428
3016 2929 2829 2730 2654 2544 2471 2446 2394 2322 2244 2172 2081 1986 1885 1786 1703 1646 1562 1442 1330 1312 1356 1508 1859 2194 2302 2236 2204 2430 2627 2558 2430 2394 2563 2728 2753 2738 2766 2831 2857 2817 2741 2628 2542 2544 2597 2583 2494 2384 2206 2009 1862 1786 1744 1691 1636 1508 1367 1191 976 790 705 672 707 754 760 760 719 612 533 530 559 542 520 471 241 437 420 198 182 164 72 148 343
3226 3116 3024 2920 2831 2726 2610 2548 2502 2464 2380 2291 2214 2110 1999 1865 1753 1651 1598 1546 1454 1364 1406 1496 1668 1860 2059 2204 2202 2156 2331 2676 2742 2618 2506 2599 2706 2746 2753 2787 2824 2846 2795 2706 2588 2492 2479 2522 2532 2504 2458 2342 2175 2014 1902 1834 1774 1734 1637 1500 1277 1031 850 779 717 670 675 670 668 633 540 474 491 542 550 500 446 452 433 409 377 92 111 143 229
3450 3373 3271 3141 3012 2911 2806 2698 2584 2537 2456 2375 2268 2178 2074 1952 1806 1674 1586 1537 1557 1519 1492 1531 1651 1821 1972 2090 2160 2166 2140 2224 2600 2876 2824 2698 2666 2688 2740 2764 2817 2842 2829 2774 2692 2577 2473 2432 2450 2460 2446 2424 2384 2314 2202 2099 2012 1923 1831 1736 1622 1463 1293 1129 992 820 695 628 631 609 551 500 438 424 513 536 502 447 450 434 407 384 333 202 265
3638 3570 3506 3430 3304 3171 3085 2992 2894 2780 2634 2438 2337 2213 2121 1995 1848 1696 1583 1490 1495 1609 1606 1595 1625 1761 1966 2109 2173 2246 2275 2247 2276 2568 2927 3000 2904 2796 2724 2768 2789 2840 2862 2846 2791 2692 2565 2450 2397 2420 2440 2432 2392 2340 2288 2272 2253 2166 2084 1958 1820 1708 1584 1460 1359 1227 1062 910 819 744 607 502 445 411 394 468 490 467 455 455 437 415 360 305 288
3690 3743 3692 3622 3540 3450 3360 3281 3185 3091 2964 2767 2525 2312 2184 2060 1885 1714 1573 1477 1423 1518 1646 1678 1676 1697 1809 1987 2135 2226 2332 2412 2442 2437 2595 2925 3094 3086 2926 2801 2770 2784 2830 2862 2857 2804 2709 2596 2483 2416 2443 2487 2494 2456 2371 2320 2261 2252 2229 2173 2076 1958 1844 1755 1666 1582 1454 1296 1134 1026 920 700 503 405 351 323 429 462 436 429 407 379 367 352 321
3337 3602 3729 3733 3690 3637 3570 3478 3394 3304 3181 3038 2831 2545 2249 2127 1974 1813 1632 1542 1467 1492 1640 1721 1732 1722 1724 1798 1939 2090 2219 2345 2500 2578 2591 2664 2934 3140 3098 2961 2857 2813 2791 2816 2838 2827 2764 2695 2619 2542 2467 2448 2517 2545 2533 2488 2407 2342 2296 2255 2195 2085 2011 1937 1915 1857 1814 1697 1522 1300 1203 1056 839 631 447 312 358 402 384 368 351 327 305 317 316
3050 3331 3566 3656 3682 3657 3628 3572 3501 3419 3314 3186 3024 2835 2606 2271 2089 1916 1746 1649 1613 1587 1697 1838 1896 1884 1845 1811 1836 1926 2074 2218 2394 2567 2689 2745 2796 2977 3113 3091 3014 2964 2933 2901 2839 2807 2782 2752 2710 2652 2576 2489 2429 2500 2551 2536 2501 2449 2383 2302 2252 2188 2090 2022 1959 1915 1871 1789 1632 1450 1305 1142 1000 818 636 474 390 363 366 374 354 334 291 290 318
3152 3259 3279 3533 3616 3646 3633 3597 3536 3463 3378 3278 3144 3029 2896 2699 2445 2134 1919 1773 1736 1727 1764 1926 2122 2206 2203 2132 2041 2031 2105 2250 2396 2505 2674 2827 2899 2940 2995 3054 3064 3061 3068 3040 2966 2902 2853 2839 2818 2777 2710 2659 2597 2529 2514 2588 2561 2504 2439 2396 2327 2247 2161 2106 2092 2094 2066 1982 1879 1791 1679 1545 1399 1269 1128 952 839 756 649 514 398 372 318 307 320
3447 3448 3402 3367 3482 3566 3611 3599 3561 3506 3437 3362 3257 3136 3046 2906 2738 2520 2301 2020 1868 1821 1821 1884 2105 2368 2506 2531 2454 2358 2302 2343 2518 2685 2763 2846 2978 3027 3048 3022 3008 3008 3038 3055 3044 3010 2950 2918 2890 2859 2847 2810 2776 2720 2675 2591 2601 2585 2538 2490 2439 2359 2300 2200 2130 2144 2140 2129 2095 2029 1964 1909 1832 1722 1626 1493 1296 1107 953 794 647 429 300 318 301
3602 3586 3546 3498 3457 3434 3549 3592 3582 3547 3474 3420 3343 3254 3145 3043 2901 2731 2566 2421 2266 2078 1884 1912 1968 2154 2437 2655 2759 2734 2666 2614 2578 2633 2860 3004 3069 3102 3101 3085 3059 3055 3059 3066 3076 3083 3059 3009 2956 3018 3049 3090 3074 3060 2982 2879 2779 2652 2520 2537 2522 2456 2382 2293 2244 2208 2168 2126 2114 2078 2065 2029 1979 1926 1826 1714 1530 1299 1174 998 819 652 492 356 290
3586 3574 3608 3614 3588 3530 3494 3542 3590 3578 3552 3479 3388 3315 3226 3139 3022 2897 2750 2622 2529 2404 2283 2152 1977 2043 2141 2364 2608 2788 2862 2879 2870 2838 2792 2890 3105 3227 3248 3256 3219 3208 3202 3219 3237 3257 3294 3340 3387 3448 3503 3530 3524 3502 3422 3335 3227 3122 2983 2832 2682 2558 2385 2352 2325 2288 2262 2242 2223 2179 2115 2065 1927 1873 1823 1730 1603 1505 1374 1394 1204 810 599 492 375
3038 3179 3357 3415 3454 3456 3484 3592 3617 3593 3571 3526 3459 3382 3294 3220 3119 3017 2907 2788 2694 2611 2531 2459 2396 2309 2156 2137 2352 2502 2662 2812 2942 2980 2994 2978 3023 3247 3350 3409 3428 3450 3483 3522 3547 3588 3632 3691 3758 3807 3842 3861 3846 3796 3738 3644 3569 3467 3350 3218 3088 2936 2758 2551 2478 2415 2401 2398 2410 2379 2347 2338 2319 2269 2224 2124 2005 1890 1778 1660 1499 1357 1116 890 646
4083 3004 2946 3331 3460 3472 3581 3721 3719 3681 3628 3584 3535 3473 3396 3322 3231 3125 3026 2952 2882 2807 2752 2700 2655 2583 2506 2384 2252 2523 2682 2847 2947 3028 3085 3122 3122 3195 3351 3435 3512 3596 3638 3684 3746 3798 3859 3906 3948 3966 3993 4011 4017 4020 3983 3893 3824 3701 3605 3531 3396 3236 2973 2867 2752 2644 2664 2662 2617 2637 2608 2625 2603 2569 2527 2464 2373 2186 2053 1922 1827 1856 1089 798 976
4619 3474 2945 3468 3650 3660 3760 3912 3922 3865 3795 3722 3672 3602 3532 3438 3369 3284 3214 3133 3066 3007 2962 2935 2898 2833 2742 2673 2786 2875 2899 3027 3150 3206 3259 3330 3367 3364 3352 3383 3443 3622 3648 3710 3769 3842 3889 3916 3932 3950 3958 3961 3968 3957 3955 3962 3922 3880 3833 3746 3614 3452 3261 2911 2818 2699 2803 2440 2601 2608 2567 2675 2670 2689 2649 2517 2511 2478 2447 2192 2086 1832 1432 1139 1056
5273 3898 3104 3439 3759 3882 4038 4147 4153 4126 4038 3925 3841 3803 3824 3814 3752 3628 3529 3479 3437 3432 3356 3192 3164 3088 3035 2978 3107 3287 3343 3368 3380 3395 3401 3410 3512 3520 3514 3559 3582 3594 3495 3588 3611 3658 3695 3705 3687 3680 3639 3738 3812 3831 3841 3852 3834 3846 3820 3738 3650 3505 3296 3009 2669 2611 2401 2391 2463 2404 2579 2436 2565 2610 2619 2576 2441 2397 2270 2128 2007 1617 1286 1093 923
5407 4360 3401 3395 3814 4007 4248 4398 4403 4380 4299 4183 4120 4107 4138 4141 4101 4044 3970 3859 3806 3765 3747 3705 3653 3584 3500 3435 3347 3330 3365 3656 3722 3771 3775 3749 3714 3678 3650 3657 3664 3707 3782 3670 3786 3805 3848 3839 3848 3830 3794 3740 3750 3796 3835 3852 3827 3795 3756 3706 3643 3555 3427 3269 2960 2792 2439 2833 2573 2588 2461 2399 2434 2392 2300 2260 2371 2274 1883 1761 1582 1283 1134 1227 995
5363 4615 3750 3552 3966 4181 4406 4603 4649 4641 4590 4475 4418 4392 4453 4443 4386 4369 4288 4237 4164 4109 4077 4054 4037 3991 3966 3925 3859 3802 3749 3685 3904 4013 3986 3970 3972 3970 3975 4016 4143 4209 4241 4215 4172 4133 4099 4064 4057 4025 3998 3936 3908 3858 3846 3793 3723 3683 3685 3666 3651 3616 3570 3458 3163 3156 2825 2772 2650 2502 2612 2209 2372 2233 2067 2120 2209 2158 1724 1600 1404 1190 1100 1068 1040
5196 4788 4128 3834 4187 4372 4568 4768 4916 4938 4896 4802 4728 4738 4710 4715 4662 4620 4550 4524 4476 4432 4380 4348 4328 4309 4286 4254 4215 4152 4090 4039 3989 3962 4169 4394 4432 4398 4370 4346 4380 4419 4438 4432 4397 4327 4293 4242 4169 4107 4038 3999 3939 3868 3825 3781 3731 3696 3599 3558 3517 3571 3561 3482 3355 3243 3179 3130 2972 2886 2619 2267 1963 2017 1978 1810 1913 1982 2008 2023 1900 1940 1833 1402 1024
5058 5263 4431 4202 4462 4499 4684 5692 5323 5168 5165 5139 5095 5111 5003 5016 4956 4882 4864 4811 4761 4738 4701 4648 4602 4553 4508 4452 4412 4351 4313 4297 4267 4231 4137 3970 4008 4094 4180 4201 4172 4220 4223 4238 4208 4171 4126 4095 4055 3996 3943 3872 3795 3702 3628 3526 3455 3406 3358 3322 3266 3235 3210 3136 3066 2960 2764 2698 2600 2484 2403 2358 2281 2303 2144 2030 2040 1782 1717 1677 1643 1533 1542 1560 1302
4753 5242 5120 4735 4748 4759 4826 5648 5187 5287 5322 5287 5197 5199 5283 5299 5160 5087 5020 4987 4932 4865 4818 4772 4748 4711 4641 4571 4531 4548 4534 4575 4576 4485 4428 4296 4227 4177 4115 3947 3778 3693 3636 3586 3500 3485 3458 3427 3364 3316 3304 3312 3361 3398 3437 3417 3352 3339 3289 3208 3089 2961 2868 2748 2613 2359 2026 1811 1602 1430 1131 1137 1193 1334 1455 1455 1466 1577 1789 1597 1599 1726 1477 1444 1249
4587 4788 5048 5071 5180 4993 5090 5474 5226 5334 5298 5229 5170 5082 5134 5234 5315 5315 5292 5140 5150 5132 5020 4959 4912 4889 4846 4750 4802 4911 4949 4878 4775 4756 4671 4588 4495 4372 4208 4055 3953 3872 3794 3641 3526 3492 3493 3453 3388 3334 3306 3263 3236 3176 3113 3018 2889 2708 2512 2354 2226 2044 1782 1483 1242 938 532 511 520 528 565 638 707 811 901 1040 1107 1149 1257 1331 1288 1277 1245 1150 1084
4434 4655 4688 4887 5050 5253 5362 5404 5278 5337 5322 5229 5099 5006 4955 5092 5300 5416 5385 5436 5388 5358 5318 5244 5113 4997 4884 4978 4916 4807 4741 4722 4710 4737 4716 4638 4503 4433 4264 4152 4048 3913 3775 3697 3644 3504 3432 3355 3249 3167 3099 2919 2727 2538 2252 1892 1421 903 229 0 0 0 0 0 0 1 14 54 162 215 270 346 447 554 631 703 733 758 936 1073 1048 1004 1076 1111 888
4273 4424 4592 4578 4624 4670 4910 5287 5394 5334 5360 5281 5208 5093 4980 4977 5023 5170 5316 5408 5381 5339 5211 5082 5159 5063 5006 4855 4684 4607 4483 4281 4143 4110 4117 4143 4083 4053 4000 3876 3769 3684 3613 3472 3234 3135 2976 2934 2824 2484 1936 1244 407 0 0 0 0 0 0 0 0 0 0 0 0 0 0 0 12 47 116 184 261 367 480 557 599 622 694 795 901 989 988 904 817
3921 4123 4140 4316 4420 4473 4510 4592 4973 5334 5442 5430 5378 5255 5099 4990 4970 4821 4778 4954 5023 4882 4639 4374 4326 4518 4399 4621 4528 4334 4202 4103 4032 3932 3858 3800 3764 3727 3699 3655 3634 3547 3411 3196 3015 2833 2430 1659 638 0 0 0 0 0 0 0 0 0 0 0 0 0 0 0 0 0 0 0 3 6 12 40 95 167 235 325 417 501 571 631 758 845 891 958 944
3744 3973 3912 3826 4126 4312 4410 4464 4459 4604 4947 5186 5303 5348 5245 5106 4945 4741 4524 4368 4430 4491 4570 4585 4498 4257 4232 4243 4266 4213 4086 4006 3960 3846 3633 3262 3122 3036 3005 3026 3024 2938 2764 2322 1529 452 0 0 0 0 0 0 0 0 0 0 0 0 0 0 0 0 1 1 2 2 1 1 2 3 5 12 24 82 180 278 372 417 464 555 634 691 697 644 621
3299 3741 3809 3785 3938 4130 4298 4345 4392 4410 4480 4608 4736 4816 4822 4697 4443 4285 4149 4423 4199 3963 4150 4132 4196 4224 4206 4060 3930 3809 3725 3614 3427 3267 3145 3021 2914 2711 2443 2095 1628 1234 202 0 0 0 0 0 0 0 0 0 0 0 0 0 0 0 1 2 4 4 3 3 2 1 2 3 4 5 6 9 17 24 33 120 220 322 372 411 438 473 536 550 570
2994 3235 3525 3622 3756 3960 4159 4300 4336 4362 4353 4321 4281 4243 4179 4153 4095 3783 3840 4074 3352 3135 3451 3334 3428 3719 3713 3541 3233 3062 3064 2973 2975 3019 2942 2712 2390 1970 1271 124 0 0 0 0 0 0 0 0 0 0 1 0 0 0 0 2 3 4 5 5 4 3 3 3 3 4 4 7 8 7 8 10 13 14 27 59 121 196 268 322 348 376 380 491 567
2604 3009 3205 3351 3481 3729 3870 4024 4156 4227 4182 3987 3847 3701 3694 3406 3348 3180 3152 3060 3064 2846 2658 2782 3061 3074 2992 2836 2428 1948 1299 1050 924 846 427 0 0 0 0 0 0 0 0 0 0 0 0 0 0 0 0 0 0 2 4 5 6 6 4 3 4 4 4 4 3 2 2 4 6 9 11 15 22 25 26 32 52 113 149 192 271 356 404 401 403
1639 2344 2675 3037 3226 3293 3481 3542 3490 3575 3439 3329 3437 3404 3277 3145 3063 3024 2796 2633 2448 2466 2474 2610 2542 2433 2328 2308 1727 747 0 0 0 0 0 0 0 0 0 0 0 0 0 0 0 0 0 0 0 0 0 0 2 4 6 7 6 5 3 3 4 4 3 3 4 7 10 14 18 21 17 12 13 14 14 14 19 24 30 62 131 178 239 268 291
1186 1457 1924 2433 2798 3072 3029 2991 2973 2935 2902 2883 2849 2868 2866 2675 2562 2572 2338 2068 2094 2064 2099 2156 2152 2126 1859 1596 892 0 0 0 0 0 0 0 0 0 0 0 0 0 0 0 0 0 0 1 1 0 0 1 2 4 4 3 1 1 1 2 3 3 2 4 3 4 4 4 4 9 13 13 12 11 11 13 11 8 6 5 29 29 9 12 12
951 956 1187 1476 1972 2264 2396 2451 2536 2531 2501 2566 2627 2592 2619 2589 2545 2529 2366 1965 1459 1322 1340 1468 1472 1402 979 345 0 0 0 0 0 0 0 0 0 0 0 0 0 0 0 0 0 0 0 4 2 0 0 0 0 0 0 0 0 0 0 0 0 0 0 0 0 0 1 2 3 3 4 7 14 19 22 22 19 16 11 12 28 21 9 6 2
881 837 710 652 947 1302 1643 1920 2089 2192 2249 2167 2078 2081 2155 2178 2120 2078 1797 1004 653 528 454 184 60 0 0 0 0 0 0 0 0 0 0 0 0 0 0 0 0 0 0 0 0 0 1 3 1 2 0 0 0 0 0 0 0 0 0 0 0 0 0 0 0 0 0 0 0 0 0 0 1 1 2 4 4 10 14 13 18 35 34 6 8
840 752 754 765 624 435 589 844 1079 1298 1409 1467 1295 848 471 304 171 0 0 0 0 0 0 0 0 0 0 0 0 0 0 0 0 0 0 0 0 0 0 0 0 0 0 0 0 0 1 1 2 3 1 0 0 0 0 0 0 0 0 0 0 0 0 0 0 0 0 0 0 0 0 0 0 0 0 1 0 0 0 3 6 9 10 4 6
749 810 786 771 800 734 547 460 449 434 352 87 0 0 0 0 0 0 0 0 0 0 0 0 0 0 0 0 0 0 0 0 0 0 0 0 0 0 0 0 0 0 0 0 1 3 5 5 3 1 0 0 0 0 0 0 0 0 0 0 0 0 0 0 0 0 0 0 0 0 0 0 0 0 0 0 0 0 0 0 0 0 0 0 1
652 564 544 641 723 745 707 635 541 431 362 141 0 0 0 0 0 0 0 0 0 0 0 0 0 0 0 0 0 0 0 0 0 0 0 0 0 2 2 1 0 0 2 2 1 3 5 2 3 0 0 0 0 0 0 0 0 0 0 0 0 0 0 0 0 0 0 0 0 0 0 0 0 0 0 0 0 0 0 0 0 0 0 0 0
669 667 606 539 506 521 508 487 470 449 378 101 0 0 0 0 0 0 0 0 1 0 0 0 0 0 0 0 0 0 0 0 1 4 5 5 5 6 7 6 2 5 4 3 4 4 4 6 5 3 3 1 0 0 0 0 0 0 0 0 0 0 0 0 0 0 0 0 0 0 0 0 0 0 0 0 0 0 0 0 0 0 0 0 0
489 623 659 616 563 498 456 387 305 163 0 0 0 0 0 0 0 0 0 0 0 0 0 0 0 1 0 0 0 1 0 0 0 3 6 8 9 9 7 5 4 3 3 3 4 3 7 15 12 7 3 2 1 0 0 0 0 0 0 0 0 0 0 0 0 0 0 0 0 0 0 0 0 0 0 0 0 0 0 0 0 0 0 0 0
0 113 369 495 555 494 405 348 284 200 0 0 0 0 0 0 0 0 1 1 1 1 0 0 0 0 1 0 1 0 1 1 1 2 6 7 6 6 7 7 2 2 1 2 2 3 5 11 12 11 9 0 0 0 0 0 0 0 0 0 0 0 0 0 0 0 0 0 0 0 0 0 0 0 0 0 0 0 0 0 0 0 0 0 0
0 0 0 0 0 0 0 0 0 0 0 0 0 0 0 0 0 0 0 0 0 0 0 1 0 1 1 1 1 1 1 1 1 1 4 7 7 7 5 4 2 2 2 1 3 5 5 4 3 11 16 3 0 0 0 0 0 0 0 0 0 0 0 0 0 0 0 0 0 0 0 0 0 0 0 0 0 0 0 0 0 0 0 0 0
0 0 0 0 0 0 0 0 0 0 0 0 0 0 0 0 0 0 0 0 0 0 0 0 0 2 3 2 2 3 3 4 3 2 2 4 5 7 8 7 2 1 0 1 2 2 3 4 5 12 22 25 22 3 0 0 0 0 0 0 0 0 0 0 0 0 0 0 0 0 0 0 0 0 0 0 0 0 0 0 0 0 0 0 0
0 0 0 0 0 0 0 0 0 0 0 0 0 0 0 0 0 0 0 0 0 0 0 0 0 0 2 3 3 3 5 4 6 6 6 8 9 6 4 5 3 2 0 0 0 0 1 3 12 20 32 34 29 18 3 1 1 0 0 0 0 0 0 0 0 0 0 0 0 0 0 0 0 2 0 0 0 0 0 0 0 0 0 0 0
0 0 0 0 0 0 0 0 0 0 0 0 0 0 0 0 0 0 0 0 0 0 0 0 0 0 0 0 2 2 1 0 1 1 0 1 2 2 3 2 2 3 2 1 0 0 0 0 3 15 18 29 40 40 25 2 2 0 0 0 0 0 0 0 0 0 0 0 8 8 0 8 15 29 21 14 3 0 0 0 0 0 0 0 0
Wind_Speed
6 6 8 7 8 8 8 8 8 9 10 10 10 9 8 7 5 4 2 0 3 5 6 7 9 9 9 10 11 11 11 11 11 11 12 12 12 13 13 14 14 13 13 14 14 15 16 16 16 16 15 14 13 13 14 15 15 16 nan nan nan nan nan nan nan nan nan nan nan nan nan nan nan nan nan nan nan 24 26 26 28 29 29 29 28
4 4 5 5 5 7 8 9 9 8 8 9 10 10 9 7 6 5 3 2 3 5 7 7 8 9 9 10 10 11 11 11 11 11 11 11 11 12 13 14 14 14 14 14 15 15 15 16 15 16 17 17 15 15 15 15 16 17 18 19 nan 20 nan nan nan 18 17 14 16 nan nan nan nan nan 25 25 24 23 26 26 nan nan 28 28 28
1 4 5 5 5 7 8 8 8 7 6 8 9 9 9 8 6 4 2 1 1 3 5 7 8 9 9 10 10 10 11 11 11 11 11 11 11 11 12 14 14 15 15 15 16 15 15 16 16 16 16 16 16 15 15 16 16 17 18 19 20 21 22 nan nan nan nan 16 nan nan nan nan nan nan nan 23 24 25 26 26 nan 27 27 28 29
4 5 7 8 7 8 8 7 6 6 7 8 7 7 7 7 5 4 2 2 0 2 4 6 7 9 10 10 11 10 10 10 10 10 10 10 10 11 12 12 13 14 15 16 16 16 16 16 17 18 18 17 16 15 15 17 18 18 18 18 19 21 22 22 nan nan nan 20 17 21 nan nan nan nan nan 23 24 24 25 25 nan 27 28 28 29
5 6 7 6 7 7 6 6 6 6 6 7 6 5 5 5 4 3 2 2 0 2 3 5 7 8 9 11 12 12 11 10 9 8 7 7 8 9 10 11 12 13 14 15 15 17 17 17 18 18 19 18 16 15 16 17 18 18 19 19 20 20 20 23 23 nan nan nan 20 20 22 nan nan nan nan 28 24 23 nan nan nan nan 28 28 29
5 6 6 5 6 4 5 6 6 6 6 6 5 4 4 4 3 3 2 2 1 2 4 5 7 9 10 11 11 11 10 9 9 9 9 7 7 7 9 10 12 13 13 14 14 15 16 17 17 18 18 19 19 18 18 19 18 18 19 20 21 20 21 21 23 23 24 nan nan 22 22 24 23 nan nan 30 30 27 24 23 nan nan nan nan 29
5 5 5 5 6 5 5 6 7 7 7 7 6 5 5 5 4 4 2 2 2 3 4 6 6 9 10 10 9 9 8 8 8 8 9 9 9 9 10 11 12 13 14 16 16 15 16 17 17 18 19 20 21 21 21 20 19 19 20 20 21 22 22 22 24 24 23 23 23 nan 25 24 26 26 nan 30 30 32 31 28 26 28 nan nan nan
5 4 4 4 5 5 6 7 8 7 8 7 6 6 5 5 4 3 2 3 3 4 5 7 7 8 9 9 8 7 6 6 6 7 8 10 10 12 13 14 15 15 17 18 18 19 19 19 19 19 20 21 22 22 22 21 20 20 20 20 21 23 22 22 23 24 23 23 24 25 25 26 23 23 26 31 30 28 31 33 32 32 32 32 32
5 4 4 4 4 6 8 9 9 8 6 5 5 5 5 5 4 3 2 2 1 3 5 6 7 7 7 7 7 6 5 6 5 7 9 11 12 14 16 17 17 18 19 19 20 20 19 19 20 20 21 24 26 25 24 24 21 21 20 21 22 23 22 23 24 24 24 24 23 25 26 26 26 28 29 31 34 36 36 35 32 32 34 33 32
4 3 3 4 5 6 7 9 8 7 5 4 4 4 4 3 3 2 1 2 2 3 4 6 7 7 7 7 6 5 5 4 8 14 13 11 13 13 13 15 17 18 18 18 18 18 19 18 18 23 24 25 25 26 26 26 27 24 23 24 24 24 24 25 25 26 26 26 25 27 28 27 28 30 30 31 32 32 36 39 36 35 nan 35 32
4 4 5 6 7 8 8 8 8 6 5 5 5 3 2 3 2 1 1 2 3 3 4 5 6 6 6 6 7 6 5 5 12 12 14 17 12 11 12 13 14 16 16 16 16 16 15 15 15 17 20 20 22 26 26 27 27 28 28 28 28 28 27 27 27 28 29 28 27 28 29 28 27 30 31 30 33 35 36 38 38 nan 40 40 37
5 6 5 5 5 5 6 6 6 6 7 5 5 5 5 4 3 3 3 3 2 3 3 4 5 5 4 5 6 6 6 8 11 11 13 15 13 11 10 10 11 13 13 14 13 12 12 12 12 12 14 18 19 20 22 25 27 28 29 30 31 32 32 32 31 29 30 30 29 29 30 28 27 30 30 32 33 35 35 37 38 40 40 40 39
5 5 4 3 3 2 1 0 1 3 4 5 6 6 6 5 5 6 4 5 6 3 2 3 3 4 5 5 5 5 5 9 10 11 12 14 15 13 8 9 10 11 11 11 10 10 9 10 11 12 12 19 19 19 21 21 24 28 29 30 31 33 33 35 36 35 34 33 32 30 31 29 28 28 32 34 37 36 36 36 36 38 39 40 38
2 3 3 4 4 3 4 4 4 3 4 6 6 6 6 5 6 8 9 10 7 4 3 2 2 2 4 4 2 2 4 6 10 11 11 13 14 12 8 8 8 8 9 9 8 9 9 9 11 11 13 16 19 21 22 23 23 24 25 26 27 30 33 37 38 37 36 34 34 31 30 33 31 30 32 38 40 38 39 37 37 38 39 39 39
4 2 1 1 2 3 4 5 5 4 5 6 6 7 7 6 7 8 9 9 8 6 6 4 3 0 2 1 1 1 1 6 8 10 10 12 12 11 6 5 4 5 5 5 7 9 9 11 12 12 14 17 20 24 25 25 25 24 26 27 28 28 31 33 34 34 34 33 33 32 30 33 32 30 33 38 39 38 40 40 42 42 40 35 31
7 5 3 2 3 4 6 7 7 7 8 8 7 7 6 7 7 8 9 10 11 12 10 8 4 2 2 2 2 3 3 3 7 9 10 10 12 9 6 4 3 3 3 5 7 9 11 13 13 14 16 18 21 28 28 27 26 26 27 27 27 28 28 31 34 36 35 34 33 32 32 34 34 33 34 36 36 36 36 36 36 38 38 36 36
9 8 5 3 4 6 8 9 10 11 11 10 10 8 7 6 7 9 8 8 10 10 9 7 7 6 4 3 1 3 5 7 10 10 11 13 15 10 8 6 4 5 6 7 9 11 13 15 15 15 17 18 22 28 29 32 28 29 29 29 29 29 28 29 32 33 34 34 34 33 32 33 34 35 37 40 40 41 40 39 39 43 42 40 38
10 9 6 3 5 7 9 11 12 12 12 13 12 10 9 8 8 10 9 8 8 9 10 10 10 8 5 3 3 5 9 13 15 14 15 17 17 12 10 8 7 8 9 11 12 13 15 18 18 17 16 17 22 27 31 34 30 30 30 30 29 30 28 31 32 31 33 34 34 33 31 30 32 34 37 40 43 45 45 42 43 47 43 43 40
9 8 7 7 7 9 10 11 12 13 14 15 15 14 13 11 10 10 9 8 7 10 12 11 10 9 6 5 5 6 11 16 18 17 17 17 15 12 11 9 8 9 11 13 15 16 17 19 21 20 18 18 23 27 31 35 31 30 31 31 30 29 28 38 35 34 36 38 35 35 34 33 33 34 35 39 43 46 45 42 45 47 45 44 43
11 10 12 12 12 12 12 12 13 14 14 15 16 16 15 14 12 11 10 10 11 12 12 11 8 8 8 9 10 10 12 16 18 16 16 15 16 13 12 11 10 11 13 14 15 17 18 18 20 22 22 21 24 29 33 38 34 32 33 32 31 28 31 40 39 38 36 38 37 38 37 36 37 36 35 37 40 43 44 44 46 48 47 45 46
17 16 16 16 16 15 16 14 14 16 17 17 17 18 18 16 14 13 11 11 12 13 12 12 11 11 12 12 12 13 15 16 18 17 16 16 15 15 13 13 13 13 14 14 15 17 18 19 19 22 24 24 25 27 31 36 37 35 34 34 34 31 35 40 41 43 39 38 36 36 35 35 37 38 39 40 42 45 46 46 48 51 51 49 47
21 20 19 18 17 18 19 18 17 18 19 19 18 18 18 18 16 14 13 12 12 12 14 14 14 14 15 16 15 15 18 17 21 17 17 15 16 18 15 14 16 15 15 15 18 20 21 22 22 23 26 27 27 28 30 33 37 37 35 37 36 36 39 43 44 45 43 39 38 37 36 37 38 40 41 43 45 48 51 52 53 55 55 54 52
24 21 21 21 21 21 22 22 22 22 21 20 19 18 19 19 18 17 15 14 13 12 13 14 15 14 16 18 20 20 22 20 20 20 15 16 16 18 18 16 17 18 18 18 22 23 24 24 23 24 27 28 29 29 31 33 36 37 37 37 38 39 43 47 49 48 47 42 40 40 40 42 44 46 47 46 48 50 53 56 58 59 59 57 53
27 24 22 23 24 25 25 25 24 24 23 23 21 19 19 19 20 19 18 17 16 14 14 15 15 14 15 18 20 22 23 23 20 19 17 14 17 19 17 15 18 21 21 21 26 26 26 27 26 25 28 29 29 30 31 33 36 38 39 39 40 41 45 51 53 58 53 44 42 41 42 44 46 47 47 49 49 51 54 60 64 63 61 60 56
27 24 23 23 24 26 27 27 26 27 26 25 23 21 21 22 21 21 21 18 17 16 16 16 15 15 16 17 19 21 22 22 23 18 16 17 18 19 18 18 17 21 23 24 29 33 34 33 34 34 32 32 32 33 33 33 34 35 35 36 40 44 46 51 60 67 55 45 45 46 44 43 45 45 45 48 52 53 60 64 63 61 59 59 57
27 23 23 23 24 25 26 26 27 28 28 26 24 24 24 24 23 24 23 21 20 19 19 18 17 17 17 18 19 20 22 23 21 23 22 22 20 19 20 22 22 24 25 26 28 28 27 28 31 36 38 38 39 40 39 40 41 42 42 44 49 50 50 52 60 70 62 50 49 51 52 51 48 47 45 49 57 62 62 60 60 57 57 56 55
28 25 23 23 23 23 23 24 27 28 29 30 29 28 28 27 26 27 26 25 24 22 22 21 20 19 18 19 20 22 22 26 29 29 29 28 27 28 29 28 30 34 32 30 30 30 29 31 35 35 35 37 39 41 42 43 45 47 49 51 53 52 51 52 56 66 65 57 54 55 61 59 55 50 48 51 57 57 58 59 58 56 58 58 58
29 26 23 23 23 22 22 22 25 27 29 30 30 30 30 29 29 29 29 28 27 26 26 25 23 23 22 23 24 25 29 33 30 31 31 32 34 34 35 35 37 36 36 36 37 37 37 37 36 38 39 39 41 43 45 48 49 49 50 52 53 52 51 50 53 59 62 61 58 57 62 63 59 56 55 59 59 56 59 61 61 58 58 59 58
30 30 27 25 23 23 24 25 27 29 34 40 40 40 36 36 34 34 38 35 31 29 29 29 28 28 28 29 29 34 35 34 33 35 37 37 37 39 38 39 40 40 40 43 43 44 45 44 44 45 47 46 46 47 49 50 52 53 54 54 54 53 53 55 55 57 61 63 61 61 62 63 61 58 56 58 60 58 60 62 63 61 61 62 59
32 31 30 30 29 29 28 28 28 32 34 35 37 39 45 47 42 37 35 39 41 37 36 34 36 38 42 40 36 34 35 38 43 45 44 47 48 48 48 49 48 47 47 48 48 48 49 49 49 49 50 51 51 52 53 54 54 54 55 55 55 55 54 54 55 56 59 61 62 62 63 63 60 59 57 57 58 61 62 63 62 63 62 63 62
34 33 33 32 31 32 32 32 33 35 34 35 36 38 39 44 49 48 44 46 49 51 51 52 52 47 46 45 46 54 53 50 48 48 51 52 53 53 52 51 51 51 51 53 51 52 51 52 51 51 52 54 55 55 56 57 57 57 56 nan nan nan nan nan nan nan nan nan 63 63 62 59 55 56 56 58 59 62 62 63 61 61 60 60 60
36 35 35 33 34 34 34 34 35 37 36 36 37 38 41 43 44 47 49 50 53 54 54 56 57 56 54 52 49 47 49 50 51 52 53 54 54 54 54 54 53 53 50 54 56 54 54 55 54 54 55 56 57 nan nan nan nan nan nan nan nan nan nan nan nan nan nan nan nan nan 56 54 53 53 55 57 59 60 61 61 62 59 57 56 56
38 37 36 36 37 37 37 38 37 38 39 39 39 40 42 44 47 46 48 52 55 54 54 56 55 54 54 53 52 49 48 48 52 53 54 54 56 56 56 55 55 53 57 57 58 57 55 57 56 nan nan nan nan nan nan nan nan nan nan nan nan nan nan nan nan nan nan nan nan nan nan nan nan 52 55 57 58 58 60 60 58 56 53 54 55
39 38 38 38 39 39 40 40 41 40 41 42 43 44 44 46 49 50 50 48 51 53 54 54 54 55 54 54 53 52 51 51 52 53 53 54 54 54 57 54 55 55 58 58 58 57 nan nan nan nan nan nan nan nan nan nan nan nan nan nan nan nan nan nan nan nan nan nan nan nan nan nan nan nan 55 57 57 58 60 61 58 54 54 55 56
40 43 47 43 41 42 42 42 43 44 45 46 46 48 50 51 53 51 48 49 50 51 49 46 45 51 51 49 49 51 50 50 50 51 53 53 55 55 56 56 56 55 56 nan nan nan nan nan nan nan nan nan nan nan nan nan nan nan nan nan nan nan nan nan nan nan nan nan nan nan nan nan nan nan nan 56 57 58 59 58 57 56 55 55 56
43 43 43 45 45 45 44 44 46 47 47 47 49 51 52 51 51 49 47 50 51 48 47 45 43 44 51 51 51 52 51 51 51 51 52 53 53 53 56 57 nan nan nan nan nan nan nan nan nan nan nan nan nan nan nan nan nan nan nan nan nan nan nan nan nan nan nan nan nan nan nan nan nan nan nan nan 56 57 57 55 54 55 55 55 56
44 44 44 45 46 47 47 47 47 49 49 49 50 50 49 50 49 50 51 50 51 49 48 45 45 48 50 50 51 52 52 53 54 54 53 nan nan nan nan nan nan nan nan nan nan nan nan nan nan nan nan nan nan nan nan nan nan nan nan nan nan nan nan nan nan nan nan nan nan nan nan nan nan nan nan nan nan 55 55 54 54 57 60 61 61
50 48 46 47 47 49 49 49 49 51 50 49 49 50 51 51 50 50 52 52 53 52 51 49 49 50 51 49 49 49 nan nan nan nan nan nan nan nan nan nan nan nan nan nan nan nan nan nan nan nan nan nan nan nan nan nan nan nan nan nan nan nan nan nan nan nan nan nan nan nan nan nan nan nan nan nan nan nan nan nan 56 59 61 64 65
53 56 59 58 54 51 51 51 52 52 52 52 52 52 52 52 51 52 52 53 54 55 55 55 54 53 50 49 52 nan nan nan nan nan nan nan nan nan nan nan nan nan nan nan nan nan nan nan nan nan nan nan nan nan nan nan nan nan nan nan nan nan nan nan nan nan nan nan nan nan nan nan nan nan nan nan nan nan nan nan nan nan nan nan nan
56 54 56 60 55 56 54 54 54 55 54 55 55 55 55 55 55 55 56 57 58 58 58 59 58 56 54 55 nan nan nan nan nan nan nan nan nan nan nan nan nan nan nan nan nan nan nan nan nan nan nan nan nan nan nan nan nan nan nan nan nan nan nan nan nan nan nan nan nan nan nan nan nan nan nan nan nan nan nan nan nan nan nan nan nan
57 57 57 58 58 57 57 56 56 55 55 56 56 57 57 57 58 59 59 59 59 60 61 60 nan nan nan nan nan nan nan nan nan nan nan nan nan nan nan nan nan nan nan nan nan nan nan nan nan nan nan nan nan nan nan nan nan nan nan nan nan nan nan nan nan nan nan nan nan nan nan nan nan nan nan nan nan nan nan nan nan nan nan nan nan
58 58 58 57 59 58 58 58 57 58 58 58 59 59 59 59 60 nan nan nan nan nan nan nan nan nan nan nan nan nan nan nan nan nan nan nan nan nan nan nan nan nan nan nan nan nan nan nan nan nan nan nan nan nan nan nan nan nan nan nan nan nan nan nan nan nan nan nan nan nan nan nan nan nan nan nan nan nan nan nan nan nan nan nan nan
58 58 58 59 60 59 59 58 58 60 60 nan nan nan nan nan nan nan nan nan nan nan nan nan nan nan nan nan nan nan nan nan nan nan nan nan nan nan nan nan nan nan nan nan nan nan nan nan nan nan nan nan nan nan nan nan nan nan nan nan nan nan nan nan nan nan nan nan nan nan nan nan nan nan nan nan nan nan nan nan nan nan nan nan nan
59 60 61 61 61 61 61 61 62 63 63 65 nan nan nan nan nan nan nan nan nan nan nan nan nan nan nan nan nan nan nan nan nan nan nan nan nan nan nan nan nan nan nan nan nan nan nan nan nan nan nan nan nan nan nan nan nan nan nan nan nan nan nan nan nan nan nan nan nan nan nan nan nan nan nan nan nan nan nan nan nan nan nan nan nan
62 63 63 64 64 64 65 65 65 66 67 67 nan nan nan nan nan nan nan nan nan nan nan nan nan nan nan nan nan nan nan nan nan nan nan nan nan nan nan nan nan nan nan nan nan nan nan nan nan nan nan nan nan nan nan nan nan nan nan nan nan nan nan nan nan nan nan nan nan nan nan nan nan nan nan nan nan nan nan nan nan nan nan nan nan
65 65 65 66 66 67 67 67 68 68 nan nan nan nan nan nan nan nan nan nan nan nan nan nan nan nan nan nan nan nan nan nan nan nan nan nan nan nan nan nan nan nan nan nan nan nan nan nan nan nan nan nan nan nan nan nan nan nan nan nan nan nan nan nan nan nan nan nan nan nan nan nan nan nan nan nan nan nan nan nan nan nan nan nan nan
nan 65 66 67 68 68 68 68 69 69 nan nan nan nan nan nan nan nan nan nan nan nan nan nan nan nan nan nan nan nan nan nan nan nan nan nan nan nan nan nan nan nan nan nan nan nan nan nan nan nan nan nan nan nan nan nan nan nan nan nan nan nan nan nan nan nan nan nan nan nan nan nan nan nan nan nan nan nan nan nan nan nan nan nan nan
nan nan nan nan nan nan nan nan nan nan nan nan nan nan nan nan nan nan nan nan nan nan nan nan nan nan nan nan nan nan nan nan nan nan nan nan nan nan nan nan nan nan nan nan nan nan nan nan nan nan nan nan nan nan nan nan nan nan nan nan nan nan nan nan nan nan nan nan nan nan nan nan nan nan nan nan nan nan nan nan nan nan nan nan nan
nan nan nan nan nan nan nan nan nan nan nan nan nan nan nan nan nan nan nan nan nan nan nan nan nan nan nan nan nan nan nan nan nan nan nan nan nan nan nan nan nan nan nan nan nan nan nan nan nan nan nan nan nan nan nan nan nan nan nan nan nan nan nan nan nan nan nan nan nan nan nan nan nan nan nan nan nan nan nan nan nan nan nan nan nan
nan nan nan nan nan nan nan nan nan nan nan nan nan nan nan nan nan nan nan nan nan nan nan nan nan nan nan nan nan nan nan nan nan nan nan nan nan nan nan nan nan nan nan nan nan nan nan nan nan nan nan nan nan nan nan nan nan nan nan nan nan nan nan nan nan nan nan nan nan nan nan nan nan nan nan nan nan nan nan nan nan nan nan nan nan
nan nan nan nan nan nan nan nan nan nan nan nan nan nan nan nan nan nan nan nan nan nan nan nan nan nan nan nan nan nan nan nan nan nan nan nan nan nan nan nan nan nan nan nan nan nan nan nan nan nan nan nan nan nan nan nan nan nan nan nan nan nan nan nan nan nan nan nan nan nan nan nan nan nan nan nan nan nan nan nan nan nan nan nan nan
Wind_Direction
273 252 238 211 196 183 171 166 154 158 153 150 146 140 142 141 134 118 154 59 304 321 328 328 324 324 318 314 316 314 315 317 311 311 316 322 323 324 319 325 334 333 329 334 336 337 346 353 356 352 343 342 343 343 345 346 344 348 nan nan nan nan nan nan nan nan nan nan nan nan nan nan nan nan nan nan nan 0 2 4 6 8 10 11 11
273 247 227 208 188 171 161 165 160 163 154 149 143 141 142 143 135 148 130 84 311 321 324 319 318 320 318 320 319 317 316 317 312 306 313 322 327 321 325 327 333 336 331 338 340 338 339 347 355 355 345 348 345 348 346 346 345 347 350 350 nan 350 nan nan nan 354 8 349 351 nan nan nan nan nan 359 360 1 352 356 358 nan nan 5 4 4
249 200 179 172 160 163 165 166 165 156 151 154 142 139 141 144 161 154 134 143 316 328 328 325 323 324 326 325 323 321 319 317 314 313 318 327 333 331 330 332 337 339 340 345 345 340 338 342 350 350 344 347 349 349 341 345 344 349 352 347 351 351 349 nan nan nan nan 359 nan nan nan nan nan nan nan 356 355 351 353 354 nan 356 358 358 358
195 180 167 161 164 169 163 163 157 156 155 157 141 138 145 151 167 158 145 162 3 346 336 337 329 329 332 333 334 334 329 326 326 327 333 335 337 339 335 336 339 342 344 345 344 341 346 343 347 344 345 352 351 346 344 342 344 347 349 347 348 351 348 347 nan nan nan 348 344 344 nan nan nan nan nan 345 347 348 350 350 nan 351 351 351 352
188 176 177 171 171 164 152 157 153 154 155 162 142 145 142 145 155 126 132 141 102 330 340 330 334 335 340 346 348 348 348 343 342 344 343 340 342 338 335 334 339 346 350 352 347 349 350 352 352 346 347 356 358 352 349 349 346 342 345 346 347 347 342 343 345 nan nan nan 344 338 336 nan nan nan nan 341 344 344 nan nan nan nan 347 346 345
192 187 187 184 173 157 150 151 148 154 158 159 146 139 125 115 114 113 107 88 49 354 353 331 333 346 356 1 358 357 350 346 351 359 2 0 356 352 347 348 355 2 11 16 13 6 5 7 5 358 358 2 5 3 359 358 351 348 345 344 344 340 342 340 336 339 341 nan nan 341 334 337 335 nan nan 337 338 340 342 342 nan nan nan nan 343
209 203 201 194 191 173 160 157 166 166 165 160 158 144 115 101 88 80 76 55 18 356 349 350 344 351 3 5 6 4 357 350 355 6 12 17 23 26 29 29 29 29 34 35 34 30 27 24 19 13 10 10 11 10 8 6 0 360 353 348 340 338 342 339 334 335 338 339 338 nan 337 337 335 337 nan 331 334 334 339 339 341 339 nan nan nan
213 211 214 209 204 186 170 170 171 168 172 166 146 130 121 107 92 82 58 33 19 358 350 357 2 1 5 4 11 6 0 1 13 22 28 34 39 45 47 48 48 47 45 43 41 39 37 34 31 25 21 18 18 18 14 14 9 8 360 350 345 342 344 339 334 336 336 335 337 334 332 334 332 325 317 320 327 329 334 337 342 339 341 340 340
209 204 198 193 190 189 182 179 178 178 178 164 140 128 121 116 107 91 45 18 337 348 351 358 5 11 10 7 12 7 7 21 29 37 42 45 46 49 49 50 51 51 50 49 45 43 41 38 36 33 29 28 25 23 19 14 7 8 2 353 354 351 348 340 340 338 339 338 338 327 328 333 332 325 325 325 331 337 330 329 337 335 333 335 339
200 187 164 160 166 182 190 190 188 189 183 164 157 146 137 132 119 98 39 351 339 334 345 359 8 12 10 13 16 12 20 32 42 38 41 48 50 52 51 50 49 49 49 49 48 44 40 36 33 32 30 28 26 23 22 17 13 4 356 350 353 350 349 345 341 342 342 344 344 335 336 341 335 328 330 331 326 319 318 327 336 333 nan 331 333
153 144 138 155 172 187 197 199 204 205 203 203 200 197 188 194 180 166 264 297 338 330 329 355 7 9 14 18 20 23 27 37 37 39 42 42 46 50 49 50 48 47 46 44 43 40 38 34 31 25 22 22 21 19 16 14 10 8 3 355 350 347 345 345 344 342 341 343 342 336 341 346 338 327 330 327 319 324 328 326 331 nan 327 330 338
102 112 126 149 166 184 194 205 214 217 227 231 234 236 239 243 244 254 261 283 281 278 317 351 5 4 15 30 31 29 35 35 30 30 33 37 40 47 50 51 47 44 43 40 37 32 30 26 20 14 9 11 8 4 6 8 5 2 1 357 353 353 350 344 343 340 339 340 339 340 339 341 336 327 328 322 323 323 328 327 328 327 328 332 334
78 78 77 75 76 80 81 331 270 264 270 268 261 259 267 276 280 272 275 259 243 247 295 322 353 2 20 37 39 32 38 27 19 16 18 23 30 36 51 46 43 42 37 35 31 24 15 7 4 360 1 6 358 351 347 350 356 359 356 356 354 351 352 355 351 345 336 338 338 340 336 331 329 331 325 323 320 326 327 328 328 326 328 333 338
93 72 59 42 34 17 7 5 352 333 306 299 294 297 299 304 285 265 249 245 242 234 246 295 321 5 38 48 52 45 39 22 4 3 5 10 14 14 43 42 45 46 36 28 17 11 2 350 347 349 346 344 341 341 339 340 337 338 341 342 343 349 352 355 353 351 341 334 334 340 336 324 330 330 323 317 321 328 325 329 326 325 328 336 341
177 167 118 46 344 334 336 340 339 326 318 309 309 315 312 296 290 272 258 251 240 229 228 232 238 296 74 106 162 114 81 15 343 346 351 353 356 348 14 33 60 59 40 15 6 360 349 341 342 344 338 337 331 330 331 332 331 333 338 340 342 342 344 346 340 333 333 333 333 338 335 327 331 331 319 318 327 327 325 329 329 330 332 330 321
180 186 192 244 289 299 311 317 320 319 319 319 322 319 303 297 298 282 262 243 229 222 218 219 222 226 215 204 164 128 173 315 310 319 331 330 324 306 322 355 43 54 18 349 343 342 339 336 335 335 335 333 332 332 329 324 326 334 336 336 335 337 344 346 338 334 335 333 333 336 333 329 330 329 324 320 321 322 318 317 314 316 317 320 328
183 189 188 223 265 280 293 305 310 316 319 325 331 323 306 290 276 268 269 256 240 233 228 228 224 226 230 238 190 162 203 250 280 295 304 309 294 293 305 313 346 8 358 334 332 334 332 330 330 328 330 329 326 324 326 324 324 329 330 330 328 332 344 335 328 335 339 340 341 343 342 335 330 331 329 329 325 320 316 319 324 316 316 320 323
186 193 194 224 256 265 281 295 302 308 315 325 327 320 311 292 278 269 277 269 247 236 233 228 227 226 230 237 245 214 220 245 274 283 296 303 303 295 294 307 336 341 336 329 323 322 329 344 338 332 332 325 321 322 322 319 323 327 323 324 328 337 343 321 310 317 330 334 339 340 336 333 330 327 327 327 328 320 318 326 320 311 317 317 319
198 200 215 237 254 262 271 285 294 301 310 316 315 313 309 304 292 275 269 264 251 237 236 235 236 237 240 240 248 233 222 241 268 280 293 299 297 278 286 298 320 323 315 317 315 316 319 326 343 342 337 330 327 324 325 320 322 324 322 322 333 342 335 302 310 314 312 316 324 325 324 327 321 318 320 326 326 324 322 324 313 311 313 313 312
216 233 248 256 258 260 261 273 279 286 297 302 302 302 295 292 295 290 274 258 247 240 241 240 245 245 245 244 243 243 234 236 255 281 286 294 307 283 277 291 304 308 306 307 306 310 314 317 325 337 342 336 328 327 327 326 325 322 319 323 331 338 310 303 311 311 314 319 322 320 322 318 315 316 317 316 316 319 320 318 312 309 308 307 307
229 238 247 259 264 268 263 264 272 273 280 289 294 292 287 287 292 297 292 272 257 247 247 243 238 236 240 242 240 240 239 239 249 277 280 293 307 305 279 294 297 296 298 300 300 301 302 304 304 315 322 324 325 327 325 325 327 324 325 327 328 325 314 308 310 315 314 317 317 312 311 312 312 313 315 317 317 315 314 314 310 307 306 304 301
226 239 247 249 258 266 268 262 260 259 267 275 280 283 281 280 283 291 287 281 278 267 255 247 241 236 237 237 235 234 241 254 244 265 283 294 306 319 290 290 295 290 288 288 289 288 290 291 293 302 312 314 317 321 325 323 327 322 329 333 334 330 319 314 309 303 303 305 303 303 309 311 311 313 316 318 319 316 312 311 309 306 303 300 299
222 232 241 247 247 250 251 259 257 249 254 266 275 278 275 276 277 278 281 280 280 274 266 258 249 240 235 235 233 235 238 243 263 257 276 295 307 310 318 298 299 288 283 284 285 284 286 290 292 300 303 308 311 314 317 325 319 319 332 332 332 332 325 314 309 300 293 293 299 310 314 313 312 314 314 314 312 309 306 304 301 298 296 295 295
216 229 231 237 243 242 242 246 248 248 254 259 264 268 268 267 269 270 274 276 275 276 270 264 256 246 237 234 236 237 238 242 251 270 271 297 297 304 311 315 295 281 282 280 283 287 288 291 289 296 304 308 309 308 311 313 309 320 326 330 331 329 319 314 300 290 291 305 315 313 312 312 310 308 310 310 308 305 304 298 294 296 299 300 301
212 225 230 233 236 238 240 240 242 243 245 251 254 257 259 261 262 260 265 267 268 270 268 265 261 251 242 238 240 241 243 244 244 256 279 289 297 299 306 308 304 294 282 280 275 275 271 268 266 272 284 290 292 293 294 300 309 312 315 315 311 307 311 311 305 300 306 315 317 315 314 310 307 308 310 310 306 300 294 296 301 309 311 310 311
207 220 229 234 238 240 241 238 237 239 242 242 246 248 256 259 260 260 264 266 265 266 265 263 259 255 250 245 244 243 245 246 246 244 248 253 256 258 260 258 261 265 268 266 265 268 269 272 273 276 280 285 289 294 296 300 305 312 316 314 309 311 311 312 308 309 314 324 323 319 311 300 304 312 315 307 301 299 305 315 317 318 317 315 313
207 219 232 237 241 244 248 244 239 236 235 235 235 238 243 249 254 257 260 262 261 260 261 262 259 256 253 249 246 247 248 250 244 241 243 252 255 259 264 266 271 272 274 277 278 281 284 285 287 288 288 291 295 298 298 299 301 304 304 306 306 307 309 310 310 309 315 319 320 318 312 315 318 316 312 304 303 309 315 317 317 318 316 314 312
210 217 230 241 247 251 253 260 255 245 242 239 238 237 238 243 248 251 255 257 257 256 259 261 260 258 254 252 251 251 252 250 252 253 252 255 257 260 265 270 275 278 280 280 283 285 287 286 288 290 291 293 296 297 298 299 300 298 298 299 300 303 306 307 306 309 312 314 317 316 313 317 319 320 316 311 312 316 315 315 316 317 315 311 309
218 218 225 237 247 249 253 254 252 251 245 240 235 231 228 229 233 238 238 237 244 255 258 257 257 256 256 255 257 253 252 257 256 249 251 254 263 269 272 274 276 278 279 280 281 282 283 284 285 286 287 290 291 291 291 291 293 296 298 299 300 302 304 305 308 311 311 313 315 316 317 316 317 315 314 312 314 317 315 314 315 315 313 311 313
224 223 226 232 239 245 249 252 254 254 255 254 251 245 240 240 237 240 240 234 235 237 252 253 253 255 253 244 243 256 261 259 258 258 258 258 259 262 265 266 269 272 275 281 282 283 283 284 285 286 287 289 289 289 290 291 292 294 295 297 298 299 302 304 308 310 310 313 314 314 314 314 313 313 313 314 314 315 316 316 315 314 314 314 313
231 227 230 233 238 246 249 251 250 251 253 254 253 254 250 241 238 239 244 249 248 244 248 255 256 255 257 252 246 246 255 260 262 261 260 260 262 264 266 269 273 278 281 280 278 281 283 284 284 286 286 287 287 288 289 290 291 292 294 nan nan nan nan nan nan nan nan nan 312 312 312 311 311 311 312 314 315 315 315 316 316 315 315 315 314
236 232 232 235 239 243 248 252 255 255 253 253 255 256 255 255 246 240 240 245 248 250 249 250 253 254 257 259 257 249 250 256 260 260 260 262 263 265 267 269 271 274 279 281 281 282 284 285 284 284 286 286 288 nan nan nan nan nan nan nan nan nan nan nan nan nan nan nan nan nan 309 310 311 311 312 313 314 315 316 317 316 316 316 315 314
238 237 236 236 238 242 247 252 255 258 260 259 257 257 258 259 259 255 245 245 248 249 250 252 253 255 256 255 258 262 264 262 261 260 261 265 267 268 268 266 266 269 273 275 280 281 281 283 284 nan nan nan nan nan nan nan nan nan nan nan nan nan nan nan nan nan nan nan nan nan nan nan nan 310 311 313 314 316 317 318 318 318 317 315 313
242 242 241 241 243 244 247 252 255 256 257 258 259 258 257 258 259 259 259 257 253 250 248 251 257 257 255 261 264 264 264 265 264 265 267 268 269 268 269 270 270 270 277 281 281 283 nan nan nan nan nan nan nan nan nan nan nan nan nan nan nan nan nan nan nan nan nan nan nan nan nan nan nan nan 313 314 316 317 318 319 320 321 320 317 314
243 245 245 245 246 247 249 251 254 257 258 259 260 260 259 259 257 254 254 256 256 258 257 253 253 263 267 263 266 269 269 269 270 271 271 272 272 276 275 271 272 272 273 nan nan nan nan nan nan nan nan nan nan nan nan nan nan nan nan nan nan nan nan nan nan nan nan nan nan nan nan nan nan nan nan 315 315 316 317 318 321 324 325 321 317
246 247 246 247 248 247 248 250 254 256 258 259 260 261 261 261 261 261 261 262 261 257 255 253 255 253 259 263 269 273 273 272 273 274 276 277 279 275 269 271 nan nan nan nan nan nan nan nan nan nan nan nan nan nan nan nan nan nan nan nan nan nan nan nan nan nan nan nan nan nan nan nan nan nan nan nan 318 317 317 317 319 322 322 318 312
247 246 247 249 251 252 251 251 253 256 258 260 262 263 263 263 265 268 268 266 266 264 261 262 261 259 257 258 262 264 267 269 269 269 271 nan nan nan nan nan nan nan nan nan nan nan nan nan nan nan nan nan nan nan nan nan nan nan nan nan nan nan nan nan nan nan nan nan nan nan nan nan nan nan nan nan nan 315 316 318 320 323 323 323 319
247 247 247 248 251 251 252 252 253 254 255 256 260 263 264 265 267 267 268 268 268 267 267 265 263 262 261 261 265 266 nan nan nan nan nan nan nan nan nan nan nan nan nan nan nan nan nan nan nan nan nan nan nan nan nan nan nan nan nan nan nan nan nan nan nan nan nan nan nan nan nan nan nan nan nan nan nan nan nan nan 316 319 322 324 319
248 246 247 248 248 250 251 252 252 253 253 254 254 256 258 260 260 260 260 262 263 262 262 261 260 259 257 258 260 nan nan nan nan nan nan nan nan nan nan nan nan nan nan nan nan nan nan nan nan nan nan nan nan nan nan nan nan nan nan nan nan nan nan nan nan nan nan nan nan nan nan nan nan nan nan nan nan nan nan nan nan nan nan nan nan
248 249 248 249 251 249 250 251 251 252 253 255 255 256 257 258 260 261 261 262 262 262 261 261 260 259 259 260 nan nan nan nan nan nan nan nan nan nan nan nan nan nan nan nan nan nan nan nan nan nan nan nan nan nan nan nan nan nan nan nan nan nan nan nan nan nan nan nan nan nan nan nan nan nan nan nan nan nan nan nan nan nan nan nan nan
249 249 250 250 252 253 252 251 251 252 253 254 255 256 257 258 260 261 262 263 263 263 262 262 nan nan nan nan nan nan nan nan nan nan nan nan nan nan nan nan nan nan nan nan nan nan nan nan nan nan nan nan nan nan nan nan nan nan nan nan nan nan nan nan nan nan nan nan nan nan nan nan nan nan nan nan nan nan nan nan nan nan nan nan nan
248 249 250 251 251 253 254 253 253 253 253 254 254 256 257 259 260 nan nan nan nan nan nan nan nan nan nan nan nan nan nan nan nan nan nan nan nan nan nan nan nan nan nan nan nan nan nan nan nan nan nan nan nan nan nan nan nan nan nan nan nan nan nan nan nan nan nan nan nan nan nan nan nan nan nan nan nan nan nan nan nan nan nan nan nan
251 250 251 251 252 252 254 255 255 255 255 nan nan nan nan nan nan nan nan nan nan nan nan nan nan nan nan nan nan nan nan nan nan nan nan nan nan nan nan nan nan nan nan nan nan nan nan nan nan nan nan nan nan nan nan nan nan nan nan nan nan nan nan nan nan nan nan nan nan nan nan nan nan nan nan nan nan nan nan nan nan nan nan nan nan
253 253 252 252 252 253 252 254 254 255 256 256 nan nan nan nan nan nan nan nan nan nan nan nan nan nan nan nan nan nan nan nan nan nan nan nan nan nan nan nan nan nan nan nan nan nan nan nan nan nan nan nan nan nan nan nan nan nan nan nan nan nan nan nan nan nan nan nan nan nan nan nan nan nan nan nan nan nan nan nan nan nan nan nan nan
253 253 253 252 252 252 252 252 253 254 255 256 nan nan nan nan nan nan nan nan nan nan nan nan nan nan nan nan nan nan nan nan nan nan nan nan nan nan nan nan nan nan nan nan nan nan nan nan nan nan nan nan nan nan nan nan nan nan nan nan nan nan nan nan nan nan nan nan nan nan nan nan nan nan nan nan nan nan nan nan nan nan nan nan nan
253 252 252 252 252 252 253 253 254 254 nan nan nan nan nan nan nan nan nan nan nan nan nan nan nan nan nan nan nan nan nan nan nan nan nan nan nan nan nan nan nan nan nan nan nan nan nan nan nan nan nan nan nan nan nan nan nan nan nan nan nan nan nan nan nan nan nan nan nan nan nan nan nan nan nan nan nan nan nan nan nan nan nan nan nan
nan 251 251 251 251 252 252 253 254 255 nan nan nan nan nan nan nan nan nan nan nan nan nan nan nan nan nan nan nan nan nan nan nan nan nan nan nan nan nan nan nan nan nan nan nan nan nan nan nan nan nan nan nan nan nan nan nan nan nan nan nan nan nan nan nan nan nan nan nan nan nan nan nan nan nan nan nan nan nan nan nan nan nan nan nan
nan nan nan nan nan nan nan nan nan nan nan nan nan nan nan nan nan nan nan nan nan nan nan nan nan nan nan nan nan nan nan nan nan nan nan nan nan nan nan nan nan nan nan nan nan nan nan nan nan nan nan nan nan nan nan nan nan nan nan nan nan nan nan nan nan nan nan nan nan nan nan nan nan nan nan nan nan nan nan nan nan nan nan nan nan
nan nan nan nan nan nan nan nan nan nan nan nan nan nan nan nan nan nan nan nan nan nan nan nan nan nan nan nan nan nan nan nan nan nan nan nan nan nan nan nan nan nan nan nan nan nan nan nan nan nan nan nan nan nan nan nan nan nan nan nan nan nan nan nan nan nan nan nan nan nan nan nan nan nan nan nan nan nan nan nan nan nan nan nan nan
nan nan nan nan nan nan nan nan nan nan nan nan nan nan nan nan nan nan nan nan nan nan nan nan nan nan nan nan nan nan nan nan nan nan nan nan nan nan nan nan nan nan nan nan nan nan nan nan nan nan nan nan nan nan nan nan nan nan nan nan nan nan nan nan nan nan nan nan nan nan nan nan nan nan nan nan nan nan nan nan nan nan nan nan nan
nan nan nan nan nan nan nan nan nan nan nan nan nan nan nan nan nan nan nan nan nan nan nan nan nan nan nan nan nan nan nan nan nan nan nan nan nan nan nan nan nan nan nan nan nan nan nan nan nan nan nan nan nan nan nan nan nan nan nan nan nan nan nan nan nan nan nan nan nan nan nan nan nan nan nan nan nan nan nan nan nan nan nan nan nan